GEFSNGP_500_meanwind_150.txt.gz
Wind_Speed
44 44 44 44 44 44 44 42 42 37 35 32 33 35 36 35 34 33 32 32 32 32 33 33 33 33 34 34 34 35 36 37 38 38 39 39 40 41 42 43 43 44 45 46
44 44 46 46 44 44 43 43 42 40 37 32 34 36 37 36 35 34 33 33 33 33 33 33 33 34 34 35 36 36 37 38 39 39 40 40 41 42 42 43 43 44 45 46
44 45 47 47 43 43 43 42 42 41 36 35 36 37 38 37 37 35 34 34 34 35 35 34 34 34 35 36 37 38 38 39 40 40 40 41 41 42 43 43 44 45 46 47
44 46 49 44 43 42 41 40 40 40 37 37 38 38 39 38 37 36 35 35 35 35 36 35 35 35 36 37 38 39 39 40 40 40 41 42 42 43 44 44 45 46 47 48
44 46 47 44 42 41 41 39 37 39 38 38 38 39 38 38 38 36 36 35 36 36 36 36 36 37 38 38 39 39 40 40 41 41 42 43 43 44 45 46 47 48 48 49
45 45 45 40 40 40 41 39 35 38 38 38 39 39 36 37 37 37 37 36 36 36 36 36 37 37 38 39 39 40 40 41 42 42 43 44 45 45 46 47 48 48 49 50
44 43 42 38 38 39 40 35 34 35 37 38 38 37 36 37 37 37 37 37 37 37 36 36 37 38 39 39 40 40 41 42 42 43 45 45 46 47 47 48 49 49 50 51
45 44 39 36 38 38 36 36 36 35 36 37 37 37 37 37 37 37 37 37 37 37 37 37 38 38 39 40 41 41 42 43 44 45 46 46 47 48 49 49 50 51 52 53
47 44 39 38 38 36 36 37 37 35 36 37 37 37 37 37 37 37 37 37 37 37 38 38 38 39 40 41 41 42 43 44 45 46 47 47 48 49 49 50 51 52 53 54
47 45 43 40 39 38 38 38 38 37 36 37 37 37 37 37 38 38 38 38 38 38 38 38 39 40 41 42 43 44 44 45 46 47 47 48 49 50 50 51 52 53 54 55
47 43 43 41 40 38 38 38 38 38 38 37 37 37 37 38 38 38 38 39 39 39 39 39 40 41 42 43 44 44 45 46 47 48 48 49 50 51 52 53 54 55 56 57
45 42 43 42 41 41 40 39 38 39 39 38 37 37 38 39 39 39 39 39 39 40 40 40 41 42 43 44 45 45 46 47 48 48 49 50 51 52 53 54 55 56 58 59
43 44 45 43 43 43 42 41 41 41 41 39 38 38 39 40 40 40 39 40 40 41 42 42 43 43 44 44 45 46 47 48 49 50 51 51 52 53 54 55 56 57 58 59
43 44 45 44 43 43 43 43 43 43 42 41 40 40 40 41 40 40 40 40 41 42 43 43 43 44 44 45 46 47 48 49 50 51 52 52 53 54 55 56 57 58 58 59
41 43 43 42 42 43 43 43 43 43 43 43 42 42 41 41 41 41 41 42 42 43 43 43 44 44 45 46 47 48 49 50 51 52 52 53 54 55 56 57 58 58 58 58
41 43 43 41 41 42 42 43 43 43 43 44 43 42 42 42 42 42 42 42 42 43 43 44 44 45 46 47 48 49 50 51 51 52 53 54 55 56 57 58 58 57 58 59
41 43 42 42 41 42 42 43 43 42 43 43 42 42 42 42 42 42 43 43 44 44 44 44 45 46 47 48 49 50 51 51 52 53 54 55 56 57 57 57 57 58 59 60
42 42 42 42 41 41 41 41 42 42 42 42 42 41 41 41 42 42 43 44 44 44 45 45 46 47 48 49 49 50 51 52 52 54 55 56 56 57 57 57 58 59 60 60
40 40 40 39 39 39 39 40 41 41 42 41 41 40 40 41 41 42 42 43 44 44 45 46 47 48 49 49 50 51 52 52 53 54 56 56 57 57 57 58 59 59 60 60
39 38 38 38 38 39 39 40 41 41 41 41 41 41 41 40 40 41 41 43 44 45 46 47 48 49 49 50 50 51 52 53 54 55 56 56 57 57 57 58 58 59 59 59
36 36 36 37 38 39 39 39 40 40 41 41 41 41 41 41 41 42 42 43 44 46 47 48 49 49 49 50 51 52 53 54 55 55 56 56 56 57 57 57 58 58 58 58
34 35 35 36 37 38 38 38 38 39 39 40 40 41 41 42 42 43 44 45 46 47 48 48 48 49 50 51 52 52 53 54 54 55 55 56 56 56 56 57 56 56 56 55
33 33 34 35 36 37 37 37 38 38 39 39 40 40 41 41 42 44 45 46 47 47 47 47 48 48 50 50 51 52 53 54 55 55 55 55 56 55 55 55 55 55 54 52
33 33 33 34 35 36 36 36 37 38 39 40 40 41 41 41 42 44 44 45 46 46 47 47 48 49 50 51 52 53 54 54 54 54 55 55 55 54 54 54 53 52 51 50
34 35 34 34 34 34 35 36 37 39 40 40 40 40 40 41 42 42 43 44 45 46 46 47 49 50 51 52 53 53 53 53 53 53 53 53 53 52 52 52 51 49 48 48
34 34 35 35 35 35 36 37 38 38 38 39 40 41 42 42 42 42 43 44 44 45 47 48 49 50 50 51 51 52 52 52 52 52 52 51 50 50 50 50 49 48 47 47
32 33 35 35 35 35 36 37 37 37 38 39 40 41 42 42 42 43 43 44 45 46 47 47 48 49 49 50 51 51 51 50 50 49 49 49 49 49 49 48 47 47 47 46

GEFSNGP_500_meanwind_156.txt.gz
Wind_Speed
44 43 44 45 46 47 49 48 48 44 41 37 37 37 37 38 38 37 36 35 35 36 36 36 36 36 36 36 36 36 36 37 37 37 37 38 39 39 40 41 41 42 43 44
44 45 45 46 47 48 47 46 46 46 42 37 38 39 39 38 38 38 37 36 35 36 36 36 36 36 36 36 36 37 37 38 38 38 38 39 40 40 41 41 42 43 44 45
45 45 47 47 44 45 46 45 46 46 41 40 41 40 39 39 39 38 37 36 36 35 36 36 37 37 37 37 37 38 38 39 39 39 40 40 41 41 41 42 43 44 45 45
45 46 48 45 42 42 43 43 44 45 43 42 42 41 40 39 39 39 38 38 37 36 36 37 38 39 39 39 38 39 39 39 40 41 41 41 41 42 43 43 44 45 46 46
44 47 48 46 42 41 42 43 42 43 42 42 42 43 41 39 39 38 38 38 38 38 38 38 39 39 40 39 39 39 40 40 41 42 42 42 43 43 44 45 45 46 46 47
44 45 45 41 40 40 42 42 39 40 41 41 42 43 40 40 39 39 38 39 40 40 39 39 39 39 39 39 39 39 40 41 41 42 43 43 43 44 45 45 46 47 47 48
46 46 44 39 39 39 41 39 37 38 39 39 40 40 39 41 41 40 40 40 40 40 40 40 39 39 39 39 39 40 41 41 42 43 43 43 44 45 45 46 47 47 48 49
46 47 43 37 39 39 38 37 38 39 39 39 39 38 39 40 41 41 41 41 41 40 40 40 39 39 39 39 40 41 41 42 43 43 43 43 44 45 46 46 47 48 49 50
45 45 41 39 38 37 38 39 39 38 38 39 38 38 38 39 40 40 41 41 40 40 39 39 39 39 39 40 40 41 41 42 43 43 44 44 45 46 46 47 48 49 50 51
44 43 42 39 38 38 39 39 39 38 37 38 38 37 37 38 38 39 39 39 39 39 39 38 39 39 40 40 41 41 42 42 43 44 44 45 45 46 47 48 49 50 51 52
43 41 41 41 40 39 40 39 39 39 38 37 37 37 38 38 38 38 38 38 39 39 39 39 39 40 40 40 41 41 42 43 44 44 44 45 45 46 48 49 50 51 51 52
40 39 41 40 41 42 41 41 40 39 38 38 38 38 38 38 38 37 38 38 39 40 41 40 40 40 40 41 41 42 43 43 44 44 45 45 46 47 48 49 50 51 52 53
41 40 41 41 41 41 42 41 41 41 40 39 39 39 39 38 38 38 38 38 39 40 40 40 40 40 41 42 42 42 43 44 44 45 46 46 47 48 48 49 51 52 53 54
40 39 39 40 42 42 43 43 42 42 41 40 39 38 38 38 39 39 39 39 39 40 41 41 41 41 42 42 42 43 44 44 45 46 46 47 48 49 49 50 51 52 53 54
40 40 40 40 40 41 42 43 43 42 42 41 40 39 38 38 38 39 40 40 40 41 41 41 42 42 42 42 42 43 44 44 45 46 46 47 48 49 50 51 52 52 53 53
41 41 40 40 40 40 41 41 42 42 42 42 42 41 40 39 39 39 40 40 41 41 41 41 42 42 42 42 43 44 44 44 45 46 46 47 48 50 51 51 52 52 53 54
42 41 40 40 40 40 41 41 41 41 41 42 41 41 40 40 39 39 39 39 40 40 40 41 41 41 42 42 43 43 43 44 45 46 47 48 49 50 51 51 52 53 53 54
41 41 41 40 39 40 40 41 41 42 42 42 41 41 40 40 40 39 39 39 39 40 40 40 41 42 42 42 42 43 44 45 46 47 48 49 50 51 51 51 52 53 54 54
38 39 39 39 39 38 38 39 40 40 41 42 42 41 41 40 40 39 39 39 39 39 40 41 41 42 42 42 43 44 45 46 47 47 48 50 50 51 51 52 52 53 54 55
37 37 38 39 39 39 39 39 39 39 40 41 41 41 40 40 40 40 39 39 39 40 40 41 42 42 43 43 44 45 46 46 47 48 49 49 50 50 51 52 53 54 55 55
35 35 36 37 38 39 39 39 37 37 38 39 40 40 40 39 39 39 39 40 40 41 41 42 42 43 43 44 45 45 46 46 47 47 48 49 49 50 51 53 54 54 54 55
34 34 35 36 37 37 38 38 37 36 38 38 39 39 40 40 39 39 39 40 41 41 41 41 42 42 43 44 44 45 45 46 47 47 48 48 49 50 51 52 53 53 53 53
33 33 33 34 35 35 36 36 36 36 36 37 37 38 39 38 38 39 39 40 41 41 41 41 42 42 43 43 43 44 45 46 47 47 47 48 49 50 51 51 52 52 51 51
32 32 32 33 33 34 33 33 33 34 34 35 36 37 38 37 37 38 39 39 40 40 40 40 41 41 41 42 43 44 45 45 46 46 47 47 48 49 50 50 49 49 48 48
32 32 32 32 32 33 32 32 32 32 33 33 34 35 37 37 38 38 38 39 39 40 40 40 40 41 41 42 42 42 43 43 44 45 46 46 47 47 47 47 46 45 46 45
30 30 31 31 31 32 32 32 32 31 31 32 33 34 35 36 37 37 37 38 38 38 39 39 40 40 40 40 40 41 42 43 43 44 45 45 44 44 44 43 43 43 43 43
28 28 29 29 30 30 30 31 31 31 32 33 33 34 34 34 34 35 35 36 36 37 38 39 39 39 39 39 40 41 42 42 43 43 42 42 42 42 42 42 42 42 42 41

GEFSNGP_500_meanwind_162.txt.gz
Wind_Speed
44 45 46 47 45 45 47 48 49 48 48 45 44 44 43 43 42 42 42 41 41 41 40 41 42 42 42 42 41 41 41 41 40 40 40 40 40 40 40 40 41 42 42 42
44 45 48 49 47 45 46 47 48 48 47 44 45 46 45 44 44 43 43 43 42 41 41 42 42 42 42 42 41 41 41 41 40 40 40 40 40 41 41 42 42 42 42 42
45 44 48 51 47 45 46 46 46 47 45 45 47 47 47 45 45 44 44 44 44 44 43 42 42 42 42 42 41 41 41 40 40 40 40 40 41 41 42 42 42 43 43 43
44 45 50 48 45 45 45 45 45 45 45 45 46 46 46 46 45 44 44 44 44 45 44 42 42 42 42 42 41 41 41 41 40 40 40 41 41 41 42 43 43 43 43 43
42 43 46 46 44 44 46 46 44 44 44 45 46 46 47 46 45 44 43 43 43 44 44 42 42 42 42 42 42 42 42 41 41 41 41 42 42 42 42 43 43 43 43 44
42 43 43 39 40 43 45 45 42 43 44 44 45 46 45 44 45 44 43 43 42 42 43 43 42 43 43 42 42 42 42 41 41 42 42 42 43 43 43 43 44 44 44 45
41 43 42 37 37 41 44 42 42 42 43 44 45 44 43 44 45 45 44 43 41 41 42 42 42 43 43 42 42 41 42 42 41 42 42 43 43 43 43 44 44 45 45 46
40 42 39 36 37 39 40 40 41 42 42 43 43 42 42 43 43 44 44 44 42 41 41 42 42 42 42 42 41 41 41 42 42 41 42 42 43 44 44 44 45 45 46 46
41 41 38 38 39 39 39 39 39 42 42 43 42 42 41 41 41 41 42 43 42 41 41 41 41 41 41 41 41 41 42 42 42 42 42 42 44 44 45 45 45 46 46 46
42 40 39 39 40 40 40 40 39 40 42 42 43 43 42 40 40 40 41 41 42 42 41 41 41 41 41 41 41 42 42 42 42 42 42 43 43 44 44 44 45 45 46 47
44 42 41 40 40 40 41 41 40 40 41 42 42 41 41 41 40 40 41 42 43 42 42 41 41 41 41 42 41 41 41 42 42 42 43 43 43 43 43 44 45 46 47 47
44 42 43 41 40 41 43 42 41 41 41 41 42 41 40 40 40 40 40 41 42 42 42 41 41 41 41 41 41 41 40 41 41 42 42 43 43 43 44 45 45 46 46 47
41 43 44 43 43 42 43 43 42 42 42 42 41 41 41 40 40 40 40 40 41 41 41 41 41 41 41 41 41 40 40 40 41 41 42 42 43 43 44 45 46 46 47 48
39 42 44 43 43 42 42 42 42 42 42 42 41 42 42 41 40 40 40 40 40 40 40 40 40 40 40 41 41 41 41 41 41 42 42 43 43 44 45 45 45 46 47 48
37 39 41 42 42 41 41 41 41 40 40 40 40 41 41 41 41 40 39 39 39 40 40 40 40 41 41 42 42 42 42 42 43 44 43 44 44 44 44 44 45 46 47 48
37 37 39 41 41 40 39 39 39 38 38 39 39 39 39 39 39 39 39 39 39 39 40 40 40 41 42 42 42 42 42 43 43 43 43 43 43 43 44 45 46 46 47 48
37 37 38 40 41 41 40 39 37 37 38 39 39 39 39 39 39 39 39 39 40 40 40 40 41 42 42 42 43 43 43 43 42 42 42 42 43 43 44 45 45 46 48 49
36 36 36 37 39 39 39 38 37 35 35 36 37 38 39 40 40 41 40 41 41 41 42 42 42 42 42 42 42 42 42 42 42 42 42 42 43 43 44 45 46 47 49 49
36 36 36 36 36 37 37 36 36 35 35 35 37 38 39 40 41 41 42 42 43 42 42 42 42 42 42 42 41 41 41 41 41 42 42 43 43 44 45 46 47 48 49 49
34 35 35 35 35 36 36 36 36 36 35 36 37 38 39 39 39 40 40 40 40 40 40 41 41 41 41 41 41 41 41 41 42 42 42 42 43 44 45 46 47 48 49 49
32 33 33 35 35 36 36 37 37 36 36 36 36 37 37 38 38 38 38 38 38 38 39 40 40 40 40 41 41 41 41 41 41 41 42 43 44 45 45 46 46 47 48 49
31 31 32 33 34 35 35 36 37 37 36 36 36 36 36 37 37 38 38 38 37 37 37 38 39 39 39 39 39 40 40 40 41 41 42 43 44 44 44 45 46 47 47 48
30 30 31 32 33 34 35 36 36 37 37 36 35 35 36 36 36 36 36 36 36 37 37 37 37 37 37 38 38 38 39 39 40 41 42 42 42 43 43 45 46 47 47 48
30 30 30 30 32 33 34 34 35 35 35 35 35 34 35 35 35 34 35 35 35 36 36 36 36 36 37 37 37 38 38 38 39 39 40 40 41 42 43 44 45 46 46 46
29 29 29 29 31 32 32 32 32 33 34 34 34 34 34 35 35 35 35 34 34 34 34 34 34 35 35 36 36 36 37 37 38 38 39 40 41 41 42 43 44 43 43 42
28 28 28 28 28 28 29 30 31 32 33 33 33 33 33 33 34 34 33 33 33 33 33 33 33 33 34 34 35 36 36 37 37 38 39 40 40 41 41 41 41 40 40 40
27 27 27 27 27 27 27 28 29 30 31 32 32 32 33 33 33 34 34 34 33 33 33 33 32 32 33 34 34 34 35 36 37 38 38 39 39 38 38 38 38 38 39 39

GEFSNGP_500_meanwind_168.txt.gz
Wind_Speed
41 41 41 41 41 43 47 47 48 45 44 41 40 41 41 41 41 42 42 41 41 41 42 42 43 44 44 44 44 44 45 45 45 45 44 44 44 44 44 43 43 42 42 42
41 41 42 43 42 42 43 45 45 45 44 40 41 42 41 41 42 42 41 41 41 42 42 42 43 43 44 44 44 45 45 45 45 46 46 45 45 46 45 44 44 44 43 44
39 40 43 43 40 41 42 42 44 45 41 39 41 43 43 42 43 43 42 42 43 42 42 42 43 44 44 44 45 46 46 46 46 46 46 46 46 46 46 45 45 45 45 44
39 41 44 40 40 40 41 41 42 43 42 41 42 43 44 43 44 45 45 44 44 44 44 44 44 45 45 45 45 46 46 46 46 46 45 45 45 45 45 45 45 45 45 44
38 40 41 38 38 39 41 42 40 41 42 42 42 44 44 44 45 46 46 46 45 44 44 45 45 45 46 46 45 45 45 45 45 45 45 45 45 44 44 45 45 45 45 45
38 40 40 34 34 36 40 41 39 41 41 42 43 44 43 43 45 47 47 48 47 46 46 46 45 46 46 45 45 45 45 45 45 45 44 44 45 45 45 45 45 46 45 45
39 39 38 33 33 35 38 37 38 40 41 42 43 43 41 43 45 46 46 46 46 46 47 46 45 45 45 45 45 45 45 45 45 44 44 45 45 45 45 45 45 45 45 45
40 40 35 31 33 34 36 36 38 40 41 42 43 43 42 43 44 45 45 45 45 45 45 45 46 46 46 46 46 46 46 46 46 45 45 46 46 45 46 46 45 45 45 45
39 39 36 34 35 34 35 36 36 38 40 42 43 44 43 43 43 44 45 45 46 45 45 45 46 47 47 46 46 46 46 46 46 46 46 46 46 46 46 46 46 46 46 46
38 37 36 36 36 36 36 37 37 38 40 41 42 42 43 43 44 44 45 45 45 45 45 46 46 46 47 47 47 47 47 46 46 47 47 47 47 47 46 46 46 46 46 46
35 34 36 37 37 37 38 38 38 38 40 41 41 42 42 43 43 45 44 44 45 45 45 46 46 45 46 46 47 47 47 48 47 47 47 47 47 47 46 46 46 46 46 46
35 34 36 36 37 38 39 38 39 39 39 40 42 42 42 43 43 42 43 44 44 45 45 45 45 44 44 45 46 46 46 46 46 46 46 46 46 46 45 45 45 45 45 45
36 36 37 36 36 37 38 38 39 39 40 40 41 42 41 41 42 42 43 44 44 44 44 44 44 44 43 43 43 43 44 44 44 44 44 45 45 45 44 44 44 45 45 44
37 38 38 37 37 38 38 39 39 40 41 41 41 41 41 41 41 41 40 41 43 43 43 42 42 42 42 42 42 42 43 43 44 44 45 44 44 44 44 44 44 44 43 43
37 38 38 37 37 38 38 39 40 40 41 41 41 41 41 40 40 40 41 40 41 42 42 41 42 42 41 41 42 42 42 42 43 43 44 45 45 44 44 44 43 43 42 43
37 37 37 36 36 36 37 38 39 39 39 39 39 39 39 39 38 39 41 42 41 41 41 41 42 42 41 41 41 41 41 41 41 42 42 43 43 43 42 42 42 41 41 41
35 36 37 37 36 36 35 36 36 36 37 38 39 39 39 38 37 37 38 39 39 38 39 40 41 41 41 41 40 40 41 41 41 41 40 40 40 40 40 41 41 40 40 41
33 34 34 35 35 36 36 36 36 36 37 37 38 38 37 37 36 36 37 37 37 37 38 38 39 40 40 39 39 39 39 39 39 39 39 39 39 39 40 40 40 40 40 41
31 31 32 32 33 33 34 34 35 35 36 36 35 35 35 35 35 35 35 36 35 36 36 37 38 38 38 38 38 37 36 36 36 37 38 38 38 39 39 39 39 40 40 41
29 29 30 30 31 31 32 32 32 32 31 32 32 34 35 35 35 34 35 35 34 35 35 36 36 36 36 36 36 35 34 35 35 36 36 37 37 37 37 37 38 38 39 40
28 28 29 29 29 29 30 30 30 29 28 30 31 33 34 35 34 34 34 34 34 34 34 35 35 35 34 35 35 35 34 33 33 34 35 35 36 36 36 36 37 37 38 38
27 27 27 28 28 27 27 27 27 26 27 28 30 31 32 33 32 32 33 33 32 33 33 33 33 33 33 33 33 33 33 32 33 33 33 34 34 34 34 35 35 36 37 37
26 27 27 28 28 27 26 27 27 27 27 27 28 29 30 31 31 30 31 31 31 31 31 31 31 31 31 31 31 31 32 32 32 33 33 33 33 33 34 34 34 35 36 36
26 27 27 27 27 27 27 27 28 28 28 28 28 28 28 28 28 29 29 30 30 30 30 30 30 30 31 31 31 31 31 31 32 32 32 33 33 32 32 33 33 34 35 36
27 27 27 27 27 27 27 27 27 26 26 25 26 27 28 28 27 28 29 29 29 30 30 30 30 29 30 30 30 30 30 30 30 31 30 31 31 31 32 33 33 34 35 35
26 26 26 26 25 26 25 25 24 23 23 23 24 25 25 26 26 27 28 28 28 29 29 28 28 28 29 29 29 29 29 29 29 30 30 31 31 32 33 33 34 34 34 34
26 26 25 25 24 24 24 23 22 21 21 21 21 22 22 22 23 24 25 25 25 26 26 27 28 28 28 28 29 29 29 29 29 30 30 31 31 32 32 33 33 32 32 31

GEFSNGP_500_meanwind_174.txt.gz
Wind_Speed
39 38 40 41 41 41 43 44 46 47 47 43 43 43 42 43 44 45 44 45 46 46 46 47 48 48 49 49 50 51 51 50 49 49 49 48 49 49 49 48 48 48 48 48
41 39 41 42 41 41 43 44 46 46 45 42 43 43 42 42 44 45 45 45 46 46 46 46 48 48 49 50 51 52 52 51 51 50 49 49 49 49 50 50 49 49 50 49
42 41 42 42 39 40 42 43 44 45 43 42 44 43 43 43 44 44 45 47 48 48 47 47 48 48 49 49 51 51 52 53 52 51 51 50 51 51 51 51 51 52 51 51
42 42 44 39 38 39 40 40 41 44 43 45 46 46 46 45 46 46 46 47 48 48 48 48 49 50 51 51 51 51 52 52 51 51 52 52 53 53 53 53 53 53 53 52
43 44 44 39 37 38 40 40 39 41 43 44 46 48 47 46 47 47 47 47 48 48 49 49 50 51 51 52 52 51 50 51 51 51 52 53 53 53 53 54 53 52 52 52
43 44 44 39 36 37 40 40 37 40 42 43 45 47 45 45 46 46 47 47 48 48 49 49 50 51 51 51 53 52 51 51 51 51 51 52 53 53 54 54 54 53 52 52
43 44 43 39 37 38 40 38 37 40 42 42 43 44 44 44 44 44 44 46 47 48 48 48 50 50 51 51 51 51 50 51 51 51 52 52 53 53 53 53 54 53 53 52
41 43 41 38 39 39 39 38 38 38 40 41 42 42 43 43 42 43 43 44 45 46 47 47 48 49 50 50 51 51 50 50 50 50 51 52 52 52 52 53 53 53 53 52
39 40 38 38 38 38 38 38 37 38 39 40 41 41 41 41 42 42 42 42 43 45 46 47 48 48 48 49 50 50 49 49 49 50 50 50 51 51 51 51 52 52 52 51
38 36 36 37 38 38 38 38 37 38 39 40 41 42 42 42 42 42 42 42 42 44 46 46 46 46 46 47 47 48 49 48 48 49 49 49 50 50 50 50 50 50 50 50
37 35 36 36 37 38 39 40 39 38 39 40 40 41 41 41 41 42 42 43 43 44 44 45 45 46 46 47 47 47 48 49 49 49 49 49 49 49 50 51 51 50 50 49
37 36 38 36 37 39 39 40 40 40 40 40 40 41 41 41 41 41 41 41 42 43 43 43 44 45 45 46 46 47 48 48 48 48 49 49 49 49 49 50 50 50 50 49
38 38 39 38 38 38 38 38 39 40 41 41 41 41 41 41 40 40 40 40 40 40 41 42 42 43 43 43 43 44 45 46 47 47 47 47 47 48 48 48 49 49 48 47
39 39 39 38 38 38 39 39 40 40 40 40 41 41 41 40 40 40 40 40 39 39 40 40 41 42 42 42 42 42 43 43 45 45 45 45 45 45 46 45 45 45 45 45
38 39 40 40 39 39 39 39 38 38 39 39 40 40 40 40 40 40 41 41 40 40 39 40 39 40 41 41 41 41 41 41 41 41 42 42 42 43 43 42 42 41 42 42
37 38 39 38 38 38 39 38 37 37 37 38 39 39 40 40 39 39 40 41 41 40 39 39 40 40 39 40 40 40 40 39 39 40 40 40 40 40 40 40 39 40 40 41
35 36 37 37 37 37 38 38 37 36 36 37 38 38 38 38 38 38 39 39 39 40 39 39 39 40 40 40 40 40 40 39 39 39 38 39 39 39 39 39 39 40 40 40
34 34 35 35 35 35 35 36 36 36 36 36 37 38 37 38 38 38 39 39 39 39 39 39 39 39 39 38 38 39 38 38 37 37 38 38 38 38 38 38 39 38 38 38
33 33 33 33 33 34 34 35 35 35 35 35 35 36 36 37 37 37 37 38 37 37 37 38 37 37 37 37 37 37 37 37 37 37 37 37 37 37 37 37 37 37 37 37
32 31 31 31 31 32 32 33 33 33 34 34 34 35 35 35 35 35 36 36 35 35 35 35 35 36 36 36 36 37 37 37 37 37 36 36 36 36 36 35 35 35 35 36
30 30 30 30 30 31 31 32 32 33 34 34 35 34 34 33 33 33 33 32 32 33 33 33 33 33 33 33 34 34 34 34 34 34 34 34 33 33 34 34 34 34 34 33
28 28 29 29 30 30 31 31 32 32 32 32 33 33 32 31 31 31 31 30 30 30 30 31 31 30 30 30 31 31 31 31 31 31 31 32 32 32 32 32 32 31 31 31
29 28 28 28 28 29 29 30 30 30 30 30 30 30 29 28 28 29 29 29 28 28 28 29 29 28 28 28 28 29 29 29 29 29 29 29 29 29 29 28 28 28 29 29
28 28 28 27 28 28 28 29 29 29 29 29 28 27 27 27 27 27 27 26 26 26 25 25 26 26 26 26 26 27 27 27 26 26 26 26 27 27 27 27 27 26 26 27
28 28 28 28 28 28 28 28 28 28 28 27 26 25 24 24 24 24 24 23 23 22 22 22 23 24 24 24 24 25 25 24 24 24 24 25 25 25 25 25 25 25 25 25
27 27 27 27 26 26 26 26 26 26 25 24 23 23 23 22 22 22 22 21 21 21 21 21 22 22 22 22 22 22 22 22 23 23 23 22 22 22 22 22 23 23 24 25
27 26 26 26 26 26 26 26 25 24 23 22 21 21 21 21 21 20 20 20 19 19 19 19 20 20 20 20 20 20 20 20 20 20 20 20 20 20 20 21 22 23 24 25